GSAT-15

Last updated on Mon Oct 20 2025 00:02:48 GMT+0000 (Coordinated Universal Time)

1 41028U 15065A 25292.07179634 -.00000261 00000+0 00000+0 0 9997 2 41028 0.0480 84.2186 0002466 109.7874 313.1744 1.00272915 36382
UTC large
Height (km)
Speed (km/s)
/
Latitude / Longitude
Inclination (degrees)
Orbital Period (minutes)
Azimuth
Elevation
Range (km)
Doppler Factor

Next 0 passes for location: London (51.5072 / 0.1276)

Sorry there are no passes over London.